Regional Weather Roundup
Issued by NWS

Home | Current Version | Previous Version | Text Only | Print | Product List | Glossary Off
Versions: 1 2 3 4 5 6 7 8 9 10 11 12 13 14 15 16 17 18 19 20 21 22 23 24 25 26 27 28 29 30 31 32 33 34 35 36 37 38 39 40 41 42 43 44 45 46 47 48 49 50

000
ASUS43 KBIS 300602
RWRND

NORTH DAKOTA REGIONAL WEATHER ROUNDUP
NATIONAL WEATHER SERVICE BISMARCK ND
100 AM CDT FRI SEP 30 2016

NOTE: "FAIR" INDICATES FEW OR NO CLOUDS BELOW 12,000 FEET WITH NO
SIGNIFICANT WEATHER AND/OR OBSTRUCTIONS TO VISIBILITY.


NDZ001>003-009>011-017-300700-
NORTHWEST NORTH DAKOTA

CITY           SKY/WX    TMP DP  RH WIND       PRES   REMARKS
WILLISTON      PTCLDY    62  42  47 SE12G21   30.10F
6HR MIN TEMP:  62; 6HR MAX TEMP:  72;

MINOT          CLOUDY    49  45  86 E5        30.21F
MINOT AFB      PTCLDY    49  45  88 SE9       30.20F
$$

NDZ018>021-031>035-040>046-300700-
SOUTHWEST NORTH DAKOTA

CITY           SKY/WX    TMP DP  RH WIND       PRES   REMARKS
BISMARCK       PTCLDY    52  45  77 SE10      30.25S
6HR MIN TEMP:  51; 6HR MAX TEMP:  65;

DICKINSON      MOCLDY    56  41  57 SE20      30.12F
GARRISON         N/A     55  46  71 SE15      30.20F
6HR MIN TEMP:  54; 6HR MAX TEMP:  65;

HETTINGER ARPT PTCLDY    58  42  55 SE15      30.15F
$$

NDZ004>008-012>016-024-026-027-054-300700-
NORTHEAST NORTH DAKOTA

CITY           SKY/WX    TMP DP  RH WIND       PRES   REMARKS
GRAND FORKS    CLEAR     49  44  83 SE9       30.36F
GRND FRKS AFB  CLEAR     46  43  88 SE7       30.36F
DEVILS LAKE    CLEAR     53  46  77 SE16      30.32S
$$

NDZ022-023-025-028>030-036>039-047>053-300700-
SOUTHEAST NORTH DAKOTA

CITY           SKY/WX    TMP DP  RH WIND       PRES   REMARKS
FARGO          CLEAR     51  45  79 E8        30.37F
6HR MIN TEMP:  51; 6HR MAX TEMP:  62;

JAMESTOWN      CLEAR     48  45  89 SE8       30.32F
$$





USA.gov is the U.S. government's official web portal to all federal, state and local government web resources and services.